Terminal Aerodrome Forecast
Issued by NWS

Home | Current Version | Previous Version | Text Only | Print | Product List | Glossary On
Versions: 1 2 3 4 5 6 7 8 9 10 11 12 13 14 15 16 17 18 19 20 21 22 23 24 25 26 27
000
FTUS46 KSEW 311120
TAFSEA
TAF
KSEA 311120Z 3112/0118 03005KT P6SM BKN250
     FM311900 33007KT P6SM BKN250
     FM010300 01005KT P6SM BKN250
     FM011300 20005KT P6SM BKN250=

USA.gov is the U.S. government's official web portal to all federal, state and local government web resources and services.